Regional Weather Roundup
Issued by NWS Kansas City/Pleasant Hill, MO

Home | Current Version | Previous Version | Text Only | Print | Product List | Glossary On
Versions: 1 2 3 4 5 6 7 8 9 10 11 12 13 14 15 16 17 18 19 20 21 22 23 24 25 26 27 28 29 30 31 32 33 34 35 36 37 38 39 40 41 42 43 44 45 46 47 48 49 50
000
ASUS43 KEAX 271010
RWREAX

WEATHER ROUNDUP FOR EASTERN KANSAS AND NORTHWEST MISSOURI
NATIONAL WEATHER SERVICE KANSAS CITY/PLEASANT HILL MO
500 AM CDT THU APR 27 2017

KSZ040-057-103>105-MOZ028-029-037-043-271100-
...KANSAS CITY METROPOLITAN AREA...

CITY           SKY/WX    TMP DP  RH WIND       PRES   REMARKS
K.C. INTL      CLOUDY    42  32  67 W10       29.67S
K.C. DOWNTOWN  CLOUDY    44  32  62 NW7       29.69R
LEES SUMMIT    CLOUDY    43  35  73 NW12      29.68R
OLATHE - IXD   CLOUDY    43  34  70 NW10      29.69S
OLATHE - OJC   CLOUDY    42  35  76 NW9       29.68S
LAWRENCE       CLOUDY    45  35  68 NW12      29.70S

$$

MOZ001>008-011>017-020>025-030>033-038>040-044>046-053-054-271100-
...NORTHERN AND CENTRAL MISSOURI...

CITY           SKY/WX    TMP DP  RH WIND       PRES   REMARKS
ST. JOSEPH     CLOUDY    43  35  73 W7        29.67S
WHITEMAN AFB   CLOUDY    42  42 100 W8        29.66R
CLINTON        CLOUDY    43  39  87 W7        29.69R
SEDALIA        CLOUDY    44  40  85 W9        29.67S
WARSAW         NOT AVBL
CHILLICOTHE      N/A     42  34  73 W6        29.64S
KIRKSVILLE     CLOUDY    41  32  70 W7        29.60R

$$

MOZ041-047>049-056>058-063>065-088>090-097-271100-
...EASTERN AND SOUTHERN MISSOURI...

CITY           SKY/WX    TMP DP  RH WIND       PRES   REMARKS
ST. LOUIS INTL DRIZZLE   49  44  83 W15       29.58R
SPIRIT OF STL  LGT RAIN  47  45  93 W8        29.60R
COLUMBIA       CLOUDY    43  41  93 W12       29.64R
JEFFERSON CITY CLOUDY    46  40  79 W14       29.65R
ROLLA          CLOUDY    42  41  96 W13       29.63R
OSAGE BEACH    CLOUDY    43  40  89 NW6       29.67S
SPRINGFIELD    CLOUDY    43  39  86 NW10      29.69R
BRANSON        PTCLDY    39  39 100 CALM      29.73R
JOPLIN         CLEAR     40  38  93 CALM      29.73S
WEST PLAINS    CLOUDY    45  41  86 W5        29.68R

$$

IAZ060-094-KSZ022-034>040-054-083-096-NEZ052-066-093-271100-
...KANSAS...SOUTHEAST NEBRASKA AND IOWA...

CITY           SKY/WX    TMP DP  RH WIND       PRES   REMARKS
TOPEKA         CLEAR     40  33  76 W5        29.71R
MANHATTAN      CLEAR     34  30  85 W6        29.71S WCI  29
EMPORIA        CLEAR     36  34  92 W6        29.71R WCI  31
CHANUTE        CLEAR     38  36  92 W5        29.72R WCI  34
WICHITA        CLEAR     35  33  92 CALM      29.72F
OMAHA          CLOUDY    38  27  64 NW16      29.66R WCI  29
LINCOLN        CLEAR     35  29  78 NW6       29.68S WCI  30
FALLS CITY     CLOUDY    39  32  76 W6        29.67R WCI  35
LAMONI         CLOUDY    38  32  79 NW13      29.60S WCI  30
DES MOINES     DRIZZLE   37  33  85 NW20      29.58S WCI  27

$$




USA.gov is the U.S. government's official web portal to all federal, state and local government web resources and services.